User: anonymous   Login
Location: Unspecified
(0.0000°N, 0.0000°E)
Time: 07:20:01
(UTC+00:00)
Language:

JUGNU - Orbit

View from above orbital plane
View from above orbital plane
View from above satellite
View from above satellite

Ground track
Ground track

The orbit data is extracted from the following two-line orbital elements,

1 37839U 11058B   20048.09104751  .00000342  00000-0  40356-4 0  9997
2 37839  19.9612 298.7563 0019065 130.4866  19.8372 14.12671723431719
Epoch (UTC): 17 February 2020 02:11:06
Eccentricity: 0.0019065
inclination: 19.9612°
perigee height: 836 km
apogee height: 864 km
right ascension of ascending node: 298.7563°
argument of perigee: 130.4866°
revolutions per day: 14.12671723
mean anomaly at epoch: 19.8372°
orbit number at epoch: 43171

The dashed part of the orbit path shows where the satellite is in the earth's shadow,  

DLR